Location: Recife
(8.0585°S, 34.8848°W)
Time: 20:10:09
(UTC-03:00)

S-56A Canister/Altair - Pass Details

Date: 20 April 2026
Orbit: 633 x 2484 km, 38.9° (Epoch: 16 May)

Event Time Altitude Azimuth Distance (km) Brightness Sun altitude
Rises 22:55:07 0° 233° (SW) 2,969 - -83.2°
Reaches altitude 10° 22:57:14 10° 235° (SW) 2,126 - -83.6°
Maximum altitude 23:02:00 74° 320° (NW) 836 - -84.5°
Drops below altitude 10° 23:08:31 10° 44° (NE) 2,870 - -85.5°
Sets 23:11:47 0° 46° (NE) 4,109 - -85.9°
